STARLINK-30828 (58671 NORAD) Tracking and Keplerian Element Data

This shows tracking and keplerian element data for the satellite.

Feedback or suggestion? Click here.




ElementValue
Catalog58671
NameSTARLINK-30828
Epoch Orbit299
Epoch Day12.91667824
Epoch Year2024
RAAN204.1114
Inclination42.9995
Eccentricity0.0001568
Argument of Perigee230.3635
Mean Anonmoly1.2829
Mean Motion15.7401249
Decay Rate-0.01616566
L11 58671U 23211E 24012.91667824 -.01616566 00000+0 -12377-1 0 9991
L22 58671 42.9995 204.1114 0001568 230.3635 1.2829 15.74012490 2997



Live tracking and technical data element details for STARLINK-30828 (NORAD 58671). STARLINK-30828 can be tracked NOW for your location showing map with azimuth and elevation plus other details from your city location.







IsCatalogInMostPopularTable: catalog: 58671, numindb: 22
Update: records affected: 1



GetName: 58671 STARLINK-30828

Hit Count: updated at: Wed, 17 Apr 2024 02:55:44 GMT